2026-023G

Last updated on Sun Mar 08 2026 00:02:12 GMT+0000 (Coordinated Universal Time)

1 67680U 26023G 26066.61460450 .00020409 00000+0 85815-3 0 9990 2 67680 96.6251 142.2753 0023713 125.2834 235.0628 15.23161301 4523
UTC large
Height (km)
Speed (km/s)
/
Latitude / Longitude
Inclination (degrees)
Orbital Period (minutes)
Azimuth
Elevation
Range (km)
Doppler Factor

Next 0 passes for location: London (51.5072 / 0.1276)

Sorry there are no passes over London.